カタログに戻る

ONEWEB-0516

運用中通信PO
NORAD 54134·PAYLOAD·🇬🇧 United Kingdom

打ち上げ Oct 22, 2022 から Satish Dhawan Space Centre

Loading…

次のパス (今後24時間)

TLE

最新Source: CelesTrak SupGP

元期: Sep 14, 2026, 15:14 UTC

1 54134C 22138X   26257.63491157 -.00000262  00000+0 -65424-3 0  2573
2 54134  87.9109 287.1526 0001866  90.1135  23.3824 13.19728587    18

AllMySatでONEWEB-0516をリアルタイム追跡

Download on the App Store